Regional Weather Roundup
Issued by NWS

Home | Current Version | Previous Version | Graphics & Text | Print | Product List | Glossary On
Versions: 1 2 3 4 5 6 7 8 9 10 11 12 13 14 15 16 17 18 19 20 21 22 23 24 25 26 27 28 29 30 31 32 33 34 35 36 37 38 39 40 41 42 43 44 45 46 47 48 49 50
000
ASUS43 KLMK 280010
RWRKY
KENTUCKY REGIONAL WEATHER ROUNDUP
NATIONAL WEATHER SERVICE LOUISVILLE KY
800 PM EDT WED MAY 27 2015

NOTE "FAIR" INDICATES FEW OR NO CLOUDS BELOW 12,000 FEET
WITH NO SIGNIFICANT WEATHER AND/OR OBSTRUCTIONS TO VISIBILITY.

KYZ001>023-026-027-061>063-070>075-280100-
WESTERN AND SOUTH CENTRAL KENTUCKY

CITY           SKY/WX    TMP DP  RH WIND       PRES   REMARKS
PADUCAH        CLOUDY    74  66  76 SW3       30.09R
HENDERSON      CLOUDY    73  63  68 S7        30.09R
OWENSBORO      PTSUNNY   73  65  76 S9        30.11R
HOPKINSVILLE   CLOUDY    73  67  82 SE1       30.11F
BOWLING GREEN  CLOUDY    75  66  73 S6        30.14R
GLASGOW        CLOUDY    70  64  81 SE3       30.15S
$$

KYZ024-025-028>034-038-045-046-053-280100-
NORTH CENTRAL KENTUCKY

CITY           SKY/WX    TMP DP  RH WIND       PRES   REMARKS
LOUISVILLE/SDF CLOUDY    71  63  75 S9        30.13R
LOUISVILLE/LOU MOCLDY    71  63  75 S7        30.13R
FORT KNOX      CLOUDY    70  64  81 S8        30.13R
$$

KYZ035>037-039>044-047>052-055>060-089>105-280100-
NORTHEAST KENTUCKY

CITY           SKY/WX    TMP DP  RH WIND       PRES   REMARKS
LEXINGTON      CLOUDY    65  62  90 SW5       30.15R
COVINGTON      CLOUDY    72  59  63 S17G23    30.10F
FRANKFORT      CLOUDY    67  63  87 SW8       30.14R
$$

KYZ054-064>069-076>088-106>120-280100-
SOUTHEAST KENTUCKY

CITY           SKY/WX    TMP DP  RH WIND       PRES   REMARKS
JACKSON        MOCLDY    73  61  65 CALM      30.19R
LONDON         LGT RAIN  66  57  72 NW6       30.20R
SOMERSET       CLOUDY    61  61 100 E6        30.18F
MIDDLESBORO    PTCLDY    77  66  68 NW3       30.18S
MONTICELLO     CLOUDY    66  65  97 CALM      30.20F
$$



USA.gov is the U.S. government's official web portal to all federal, state and local government web resources and services.